When you browse on this site, cookies collect data to enhance your experience and personalize the content and advertising you see.
Visit our Privacy Policy to learn more. By continuing to use the site, you agree to this use of cookies and data.

Stündliche Wetter Bolshie Mochily

Heute, 29 September, Dienstag

Zeit Temperatur Niederschläge Wind Luftdruck Luftfeuchtigkeit
00:00 +13°C° 0 mm 4 m/S 764 mmHg 43%
01:00 +12°C° 0 mm 4 m/S 764 mmHg 45%
02:00 +11°C° 0 mm 4 m/S 764 mmHg 46%
03:00 +11°C° 0 mm 4 m/S 764 mmHg 47%
04:00 +10°C° 0 mm 4 m/S 764 mmHg 48%
05:00 +10°C° 0 mm 4 m/S 764 mmHg 49%
06:00 +8°C° 0 mm 4 m/S 764 mmHg 50%
07:00 +10°C° 0 mm 4 m/S 764 mmHg 48%
08:00 +11°C° 0 mm 4 m/S 764 mmHg 47%
09:00 +12°C° 0 mm 5 m/S 764 mmHg 46%
10:00 +14°C° 0 mm 5 m/S 764 mmHg 43%
11:00 +15°C° 0 mm 5 m/S 764 mmHg 40%
12:00 +16°C° 0 mm 5 m/S 763 mmHg 37%
13:00 +16°C° 0 mm 5 m/S 763 mmHg 37%
14:00 +18°C° 0 mm 4 m/S 763 mmHg 36%
15:00 +18°C° 0 mm 4 m/S 763 mmHg 36%
16:00 +17°C° 0 mm 4 m/S 763 mmHg 42%
17:00 +14°C° 0 mm 4 m/S 762 mmHg 47%
18:00 +13°C° 0 mm 3 m/S 762 mmHg 52%
19:00 +12°C° 0 mm 3 m/S 762 mmHg 54%
20:00 +12°C° 0 mm 3 m/S 762 mmHg 55%
21:00 +11°C° 0 mm 4 m/S 762 mmHg 56%
22:00 +11°C° 0 mm 3 m/S 762 mmHg 58%
23:00 +11°C° 0 mm 3 m/S 762 mmHg 59%

Morgen, 30 September, Mittwoch

Zeit Temperatur Niederschläge Wind Luftdruck Luftfeuchtigkeit
00:00 +11°C° 0 mm 3 m/S 761 mmHg 61%
01:00 +11°C° 0 mm 3 m/S 761 mmHg 65%
02:00 +10°C° 0 mm 3 m/S 762 mmHg 70%
03:00 +10°C° 0 mm 3 m/S 762 mmHg 74%
04:00 +10°C° 0 mm 4 m/S 762 mmHg 73%
05:00 +10°C° 0 mm 4 m/S 761 mmHg 73%
06:00 +10°C° 0 mm 4 m/S 761 mmHg 72%
07:00 +11°C° 0 mm 4 m/S 761 mmHg 68%
08:00 +12°C° 0 mm 4 m/S 761 mmHg 64%
09:00 +13°C° 0 mm 4 m/S 761 mmHg 60%
10:00 +15°C° 0 mm 5 m/S 761 mmHg 56%
11:00 +16°C° 0 mm 5 m/S 761 mmHg 52%
12:00 +17°C° 0 mm 5 m/S 761 mmHg 49%
13:00 +17°C° 0 mm 5 m/S 761 mmHg 48%
14:00 +19°C° 0 mm 5 m/S 761 mmHg 48%
15:00 +19°C° 0 mm 4 m/S 761 mmHg 47%
16:00 +18°C° 0 mm 4 m/S 761 mmHg 52%
17:00 +15°C° 0 mm 4 m/S 760 mmHg 56%
18:00 +14°C° 0 mm 3 m/S 760 mmHg 61%
19:00 +13°C° 0 mm 3 m/S 761 mmHg 62%
20:00 +13°C° 0 mm 3 m/S 761 mmHg 64%
21:00 +12°C° 0 mm 3 m/S 761 mmHg 65%
22:00 +12°C° 0 mm 3 m/S 761 mmHg 66%
23:00 +12°C° 0 mm 3 m/S 761 mmHg 66%

übermorgen, 1 Oktober, Donnerstag

Zeit Temperatur Niederschläge Wind Luftdruck Luftfeuchtigkeit
00:00 +12°C° 0 mm 3 m/S 761 mmHg 67%
01:00 +11°C° 0 mm 3 m/S 761 mmHg 67%
02:00 +11°C° 0 mm 3 m/S 761 mmHg 67%
03:00 +11°C° 0 mm 3 m/S 761 mmHg 67%
04:00 +11°C° 0 mm 3 m/S 761 mmHg 68%
05:00 +10°C° 0 mm 3 m/S 762 mmHg 68%
06:00 +10°C° 0 mm 3 m/S 762 mmHg 68%
07:00 +11°C° 0 mm 3 m/S 762 mmHg 65%
08:00 +12°C° 0 mm 3 m/S 762 mmHg 62%
09:00 +13°C° 0 mm 4 m/S 762 mmHg 59%
10:00 +15°C° 0 mm 4 m/S 762 mmHg 53%
11:00 +18°C° 0 mm 4 m/S 762 mmHg 48%
12:00 +20°C° 0 mm 4 m/S 762 mmHg 42%
13:00 +20°C° 0 mm 4 m/S 762 mmHg 41%
14:00 +20°C° 0 mm 5 m/S 761 mmHg 39%
15:00 +20°C° 0 mm 5 m/S 761 mmHg 37%
16:00 +19°C° 0 mm 4 m/S 761 mmHg 43%
17:00 +17°C° 0 mm 4 m/S 761 mmHg 48%
18:00 +14°C° 0 mm 3 m/S 761 mmHg 53%
19:00 +13°C° 0 mm 3 m/S 761 mmHg 55%
20:00 +12°C° 0 mm 3 m/S 762 mmHg 56%
21:00 +12°C° 0 mm 3 m/S 762 mmHg 58%
22:00 +11°C° 0 mm 3 m/S 762 mmHg 59%
23:00 +11°C° 0 mm 3 m/S 762 mmHg 61%

2 Oktober, Freitag

Zeit Temperatur Niederschläge Wind Luftdruck Luftfeuchtigkeit
00:00 +10°C° 0 mm 3 m/S 762 mmHg 62%
01:00 +10°C° 0 mm 3 m/S 762 mmHg 66%
02:00 +10°C° 0 mm 3 m/S 762 mmHg 69%
03:00 +10°C° 0 mm 3 m/S 762 mmHg 73%
04:00 +9°C° 0 mm 3 m/S 762 mmHg 76%
05:00 +9°C° 0 mm 3 m/S 762 mmHg 80%
06:00 +9°C° 0 mm 3 m/S 762 mmHg 83%
07:00 +10°C° 0 mm 3 m/S 762 mmHg 78%
08:00 +12°C° 0 mm 4 m/S 762 mmHg 73%
09:00 +13°C° 0 mm 4 m/S 762 mmHg 68%
10:00 +15°C° 0 mm 4 m/S 762 mmHg 63%
11:00 +17°C° 0 mm 4 m/S 762 mmHg 57%
12:00 +17°C° 0 mm 5 m/S 762 mmHg 52%
13:00 +19°C° 0 mm 4 m/S 762 mmHg 51%
14:00 +19°C° 0 mm 4 m/S 762 mmHg 51%
15:00 +19°C° 0 mm 4 m/S 762 mmHg 51%
16:00 +18°C° 0 mm 4 m/S 762 mmHg 56%
17:00 +16°C° 0 mm 3 m/S 762 mmHg 62%
18:00 +14°C° 0 mm 3 m/S 762 mmHg 68%
19:00 +13°C° 0 mm 3 m/S 762 mmHg 69%
20:00 +13°C° 0 mm 3 m/S 762 mmHg 71%
21:00 +12°C° 0 mm 3 m/S 762 mmHg 72%
22:00 +11°C° 0 mm 3 m/S 762 mmHg 73%
23:00 +11°C° 0 mm 3 m/S 762 mmHg 73%

3 Oktober, Samstag

Zeit Temperatur Niederschläge Wind Luftdruck Luftfeuchtigkeit
00:00 +10°C° 0 mm 3 m/S 762 mmHg 73%
01:00 +10°C° 0 mm 3 m/S 762 mmHg 73%
02:00 +10°C° 0 mm 3 m/S 762 mmHg 74%
03:00 +10°C° 0 mm 3 m/S 762 mmHg 74%
04:00 +9°C° 0 mm 3 m/S 762 mmHg 75%
05:00 +9°C° 0 mm 3 m/S 762 mmHg 76%
06:00 +9°C° 0 mm 3 m/S 762 mmHg 76%
07:00 +10°C° 0 mm 3 m/S 762 mmHg 72%
08:00 +11°C° 0 mm 4 m/S 762 mmHg 68%
09:00 +12°C° 0 mm 4 m/S 762 mmHg 64%
10:00 +14°C° 0 mm 4 m/S 762 mmHg 59%
11:00 +15°C° 0 mm 4 m/S 762 mmHg 53%
12:00 +18°C° 0 mm 4 m/S 762 mmHg 48%
13:00 +18°C° 0 mm 4 m/S 762 mmHg 48%
14:00 +18°C° 0 mm 4 m/S 761 mmHg 47%
15:00 +18°C° 0 mm 4 m/S 761 mmHg 46%
16:00 +17°C° 0 mm 4 m/S 761 mmHg 52%
17:00 +16°C° 0 mm 3 m/S 761 mmHg 57%
18:00 +13°C° 0 mm 3 m/S 761 mmHg 62%
19:00 +12°C° 0 mm 3 m/S 761 mmHg 65%
20:00 +12°C° 0 mm 3 m/S 761 mmHg 68%
21:00 +11°C° 0 mm 3 m/S 761 mmHg 71%
22:00 +11°C° 0 mm 3 m/S 761 mmHg 71%
23:00 +10°C° 0 mm 3 m/S 761 mmHg 72%

4 Oktober, Sonntag

Zeit Temperatur Niederschläge Wind Luftdruck Luftfeuchtigkeit
00:00 +10°C° 0 mm 3 m/S 761 mmHg 72%
01:00 +10°C° 0 mm 3 m/S 761 mmHg 70%
02:00 +10°C° 0 mm 3 m/S 761 mmHg 67%
03:00 +10°C° 0 mm 3 m/S 761 mmHg 64%
04:00 +10°C° 0 mm 3 m/S 761 mmHg 63%
05:00 +10°C° 0 mm 2 m/S 761 mmHg 61%
06:00 +10°C° 0 mm 2 m/S 761 mmHg 60%
07:00 +10°C° 0 mm 3 m/S 761 mmHg 58%
08:00 +11°C° 0 mm 3 m/S 761 mmHg 56%
09:00 +12°C° 0 mm 3 m/S 761 mmHg 55%
10:00 +13°C° 0 mm 3 m/S 761 mmHg 53%
11:00 +14°C° 0 mm 3 m/S 761 mmHg 50%
12:00 +16°C° 0 mm 3 m/S 761 mmHg 48%
13:00 +16°C° 0 mm 3 m/S 761 mmHg 47%
14:00 +17°C° 0 mm 3 m/S 761 mmHg 46%
15:00 +17°C° 0 mm 3 m/S 761 mmHg 44%
16:00 +16°C° 0 mm 3 m/S 761 mmHg 49%
17:00 +14°C° 0 mm 3 m/S 761 mmHg 53%
18:00 +14°C° 0 mm 2 m/S 761 mmHg 57%
19:00 +13°C° 0 mm 2 m/S 762 mmHg 58%
20:00 +13°C° 0 mm 2 m/S 762 mmHg 59%
21:00 +11°C° 0 mm 3 m/S 762 mmHg 59%
22:00 +11°C° 0 mm 3 m/S 762 mmHg 63%
23:00 +10°C° 0 mm 2 m/S 762 mmHg 66%
Mehr zeigen